Location: Diguira
(13.1838°N, 4.9109°W)
Time: 17:03:41
(UTC+00:00)

Cosmos 1174 - Pass Details

Date: 18 September 2020
Orbit: 362 x 1155 km, 66.1° (Epoch: 24 October)

Event Time Altitude Azimuth Distance (km) Brightness Sun altitude
Rises 19:14:03 0° 207° (SSW) 2,460 7.5 -14.4°
Reaches altitude 10° 19:15:58 10° 211° (SSW) 1,674 6.6 -14.8°
Maximum altitude 19:19:39 64° 293° (WNW) 626 4.3 -15.7°
Drops below altitude 10° 19:24:18 10° 15° (NNE) 2,108 6.7 -16.9°
Sets 19:26:57 0° 18° (NNE) 3,174 7.6 -17.5°
